STARLINK-30461, 57933

Orbit data source: Space-Track

STARLINK-30461, 57933 is a payload satellite owned by SpaceX/Seattle (US) in LEO that was launched on Sun, 24 Sep 2023 UTC via an FALCON 9 launch vehicle from the Air Force Eastern Test Range (AFETR). Payload-class satellites include a variety of spacecraft equipped with specific instruments for various scientific and technological missions. These include communications satellites like Starlink; space stations such as the ISS; scientific satellites like the Hubble; Earth observation satellites from companies like Planet Labs, Umbra, and HawkEye 360; GPS; miniature CubeSats for education and research; and military/defense satellites.

Loading next visibility...
Identifier
57933, 2023-147W
Orbit
LEO
Country
Flag of USUS
Related business
Manufacturer
SpaceX/Seattle
Mission
Operational Commercial Communications
Bus & Motor
STARLINK V2M, Unknown motor
Mass
730 kg wet, ~700 kg dry
Launch date (UTC)
2023-09-24 (3 years ago)
Launch vehicle
FALCON 9
Launch site
Air Force Eastern Test Range (AFETR)
Object type
Payload
Rocket body
Debris
Shape & HBR
Box + 2 Pan, 17.7 m
Radar Cross Section
33.884 m², Large (>1 m²)

Expand to show TLE details & history
Last TLE update: 2 days ago

TLE from 2 days ago
0 STARLINK-30461
1 57933U 23147W   26171.22312579  .00001065  00000-0  48252-4 0  9999
2 57933  43.0026 105.7706 0001434 279.2909  80.7780 15.27569458152280
Epoch: 2026-06-20T05:21Z
TLE epoch observation values (Epoch: 2026-06-20T05:21:18.068Z)
Latitude
-0.00004°
Longitude
117.00444°
Altitude
482.699 km
Speed
7.626 km/s
True Right ascension
07h 03m 04s
True Declination
0° 00' 00"
Sunlit
Object was in daylight at epoch
Visualization orbit readout
Latitude
Unknown
Longitude
Unknown
Altitude
Unknown
Speed
Unknown
Apparent Right ascension
Unknown
Apparent Declination
Unknown
Sunlit
N/A
Visualization observer readout
Local Sidereal Time
21:28:33
Azimuth
Unknown
Elevation
Unknown
Doppler factor
Unknown
Orbital elements
Apogee altitude
486.01 km
Perigee altitude
484.041 km
Semi-major axis
6,863.162 km
Eccentricity
0.00014
Inclination
43.0026°
RAAN
105.7706°
Arg. of periapsis
279.2909°
True anomaly
80.79422°
Mean anomaly
80.778°
Eccentric anomaly
80.78611°
Mean motion
3.8173 °/min
Orbital period
94.31 mins
BSTAR
0.000048252
Loading maneuver chart data...
Computing Atmospheric mass density...

Documentation

Showing up to 5 results
|